Regional Weather Roundup
Issued by NWS Charleston, SC

Current Version | Previous Version | Graphics & Text | Print | Product List | Glossary On
Versions: 1 2 3 4 5 6 7 8 9 10 11 12 13 14 15 16 17 18 19 20 21 22 23 24 25 26 27 28 29 30 31 32 33 34 35 36 37 38 39 40 41 42 43 44 45 46 47 48 49 50
000
ASUS42 KCHS 020526
RWRCHS

REGIONAL WEATHER ROUNDUP
NATIONAL WEATHER SERVICE CHARLESTON SC
100 AM EDT THU APR 02 2015

NOTE: "FAIR" INDICATES FEW OR NO CLOUDS BELOW 12,000 FEET WITH NO
SIGNIFICANT WEATHER AND/OR OBSTRUCTIONS TO VISIBILITY.

NOT ALL STATIONS ARE QUALITY CONTROLLED BY THE NATIONAL
WEATHER SERVICE. USE DATA WITH CAUTION...ESPECIALLY
DEWPOINT OBSERVATIONS.

SCZ027-030-031-034>040-042>050-020600-
...SOUTHEAST SOUTH CAROLINA...

CITY           SKY/WX    TMP DP  RH WIND       PRES   REMARKS
N CHARLESTON   PTCLDY    59  52  77 E9        30.24S
WATERFRONT PRK   N/A     61 N/A N/A E16         N/A
MOUNT PLEASANT FAIR      59  54  82 E3        30.24S
PINOPOLIS        N/A     55  52  88 E5        30.16S
MONCKS CORNER  FAIR      54  50  87 CALM      30.24S
SUMMERVILLE    FAIR      54  54 100 CALM      30.24S
BEAUFORT MCAS  CLEAR     61  57  87 E10       30.21S
BEAUFORT ARPT  FAIR      61  59  94 CALM      30.21F
HILTON HEAD IS CLEAR     63  61  94 NE8       30.21F
WALTERBORO     PTCLDY    52  52 100 CALM      30.23F
ALLENDALE      FAIR      57  55  94 CALM      30.21R

...SOUTHERN MIDLANDS AND PEE DEE...

CITY           SKY/WX    TMP DP  RH WIND       PRES   REMARKS
GEORGETOWN     NOT AVBL
KINGSTREE      NOT AVBL
ORANGEBURG     CLEAR     55  49  80 SE5       30.23S
BARNWELL       FAIR      57  54  88 E8        30.22S
AIKEN          FAIR      55  46  71 SE10      30.23S HAZE
MANNING        RAIN      46  36  66 CALM      30.25S
COLUMBIA       CLEAR     58  48  69 SE15      30.22R
SUMTER         CLEAR     53  47  79 E5        30.23R
FLORENCE       CLEAR     52  47  83 SE8       30.26R
MYRTLE BEACH   CLEAR     57  45  62 E13       30.29S
N MYRTLE BEACH CLEAR     58  42  55 E13G20    30.28R

$$

GAZ063-065-086>088-099>101-113>116-118-119-134>141-150-020600-
...SOUTHEAST GEORGIA...

CITY           SKY/WX    TMP DP  RH WIND       PRES   REMARKS
SAVANNAH ARPT  CLEAR     61  57  87 E7        30.20F
HUNTER AAF     CLEAR     62  61  94 E12       30.17F
FORT STEWART   PTCLDY    61  59  94 E7        30.17F
STATESBORO     CLEAR     57  57 100 CALM      30.21S
SYLVANIA       PTCLDY    57  56  97 CALM      30.22R
CLAXTON        CLOUDY    61  59  94 E6        30.20S FOG

...CSRA...CENTRAL AND FAR SOUTHEAST GEORGIA...

CITY           SKY/WX    TMP DP  RH WIND       PRES   REMARKS
THOMSON        CLEAR     63  55  73 CALM      30.22R
AUGUSTA-BUSH   CLEAR     59  50  72 SE7       30.19S
AUGUSTA-DANIEL CLEAR     62  48  60 SE13      30.19S
SWAINSBORO     CLOUDY    63  61  94 SE10      30.19S
VIDALIA        CLOUDY    63  59  88 SE7       30.18F
EASTMAN        FAIR      63  62  99 SE9       30.19R
HAZLEHURST     CLOUDY    63  61  94 SE6       30.18R
ALMA           CLOUDY    62  58  86 SE9       30.18R
WAYCROSS       CLOUDY    65  63  93 SE6       30.19R
JESUP          CLOUDY    64  63  94 SE3       30.19S
BAXLEY         CLOUDY    63  61  94 SE5       30.19R
BRUNSWICK      CLEAR     59  57  94 NE6       30.19S
SAINT SIMONS   CLEAR     61  60  97 NE6       30.18R

$$

SCZ027-028-034-036>038-045-046-048>050-GAZ119-141-020600-
...LAKE AND SUPPLEMENTAL COASTAL OBSERVATIONS...

STATION/POSITION TIME  TEMP    WIND        PRES    WAVE   SWELL
                       AIR SEA DIR/SP/G            HT/PER HT/PER/DIR
                 (UTC) (F)     (DEG/KT/KT) (MB)    (FT/S) (FT/S/D)
UPR LAKE MARION  NOT AVBL
WINYAH BAY       0445   58      90/ 10     1024.0R
LAKE MURRAY      0500   59     120/  9/ 18 1022.0S
ACE BASIN NERRS  NOT AVBL
FORT PULASKI     0500   62 62   70/ 14/ 17 1022.9F
SAPELO ISLAND    0500   63      40/  6     1022.0S

$$

ANZ835-935-AMZ111-154-330-350-352-354-370-450-454-472-020600-
...C-MAN AND BUOY OBSERVATIONS...

STATION/POSITION TIME  TEMP    WIND        PRES    WAVE   SWELL
                       AIR SEA DIR/SP/G            HT/PER HT/PER/DIR
                 (UTC) (F)     (DEG/KT/KT) (MB)    (FT/S) (FT/S/D)
BUOY 41004       0450   65 68   80/ 19/ 21 1023.3R   6/ 7   2/11
BUOY 41008       0450   65 62   70/ 12/ 14 1022.3F   3/ 5
FOLLY BEACH CMAN 0500   61      90/ 13/ 15 1023.7S
CAPERS NEARSHORE NOT AVBL
FRIPP NEARSHORE  0400   62      90/ 16/ 19 1022.2R


STATION/POSITION TIME  TEMP    WIND        PRES    WAVE   SWELL
                       AIR SEA DIR/SP/G            HT/PER HT/PER/DIR
                 (UTC) (F)     (DEG/KT/KT) (MB)    (FT/S) (FT/S/D)
5E ST. MARYS GA  0451      63                N/A     2/ 3
FRYING PAN BUOY  0450   61 63   80/ 19/ 23 1025.3R   6/ 6   2/ 90/11
BUOY 41025       NOT AVBL
CAPE LOOKOUT NC  0500   55      60/ 16/ 18 1025.9F
BUOY 41002       0450   64 69   50/ 17/ 21 1023.8R   7/ 8   3/350/ 8
BUOY 41010       0420   75 75  330/  6/  6 1021.0R
ST AUGUSTINE FL  0500   65 63  340/  2/  3 1022.2R


$$


USA.gov is the U.S. government's official web portal to all federal, state and local government web resources and services.